Regional Weather Roundup
Issued by NWS

Home | Current Version | Previous Version | Graphics & Text | Print | Product List | Glossary On
Versions: 1 2 3 4 5 6 7 8 9 10 11 12 13 14 15 16 17 18 19 20 21 22 23 24 25 26 27 28 29 30 31 32 33 34 35 36 37 38 39 40 41 42 43 44 45 46 47 48 49 50
000
ASUS43 KLOT 240504
RWRIL

ILLINOIS REGIONAL WEATHER ROUNDUP
NATIONAL WEATHER SERVICE CHICAGO/ROMEOVILLE IL
1200 AM CDT SAT JUN 24 2017

NOTE: "FAIR" INDICATES FEW OR NO CLOUDS BELOW 12,000 FEET WITH NO
SIGNIFICANT WEATHER AND/OR OBSTRUCTIONS TO VISIBILITY.

* THESE STATIONS ARE NOT UNDER NWS QUALITY CONTROL. THEY ALSO MAY NOT
  REPORT WEATHER SUCH AS PRECIPITATION OR FOG.

ILZ001-002-007-009-015-016-024-240600-
NORTHWEST ILLINOIS

CITY           SKY/WX    TMP DP  RH WIND       PRES   REMARKS
MOLINE         CLEAR     67  54  63 W13       29.95R
STERLING*      CLEAR     64  57  78 W10       29.92R
SAVANNA*       PTCLDY    65  56  71 NW13      29.92R
$$

ILZ003-004-008-010-011-017-018-240600-
NORTH CENTRAL ILLINOIS

CITY           SKY/WX    TMP DP  RH WIND       PRES   REMARKS
ROCKFORD       CLEAR     63  56  78 W9        29.88S
FREEPORT*      CLEAR     60  55  84 W7        29.91S
ROCHELLE*      CLEAR     62  56  82 W9        29.89S
DE KALB*       CLEAR     62  56  80 W8        29.89R
PERU*          CLEAR     61  56  82 W9        29.91R
$$

ILZ005-006-012>014-019>023-240600-
NORTHEAST ILLINOIS

CITY           SKY/WX    TMP DP  RH WIND       PRES   REMARKS
CHICAGO-OHARE  CLEAR     68  54  60 NW8       29.85R
CHICAGO-MIDWAY PTCLDY    69  55  60 NW12      29.85R
AURORA         CLEAR     61  57  87 W6        29.88R
LANSING*       PTCLDY    68  53  59 W7        29.86R
JOLIET*        CLEAR     67  57  70 W3        29.88R
WAUKEGAN       PTCLDY    65  54  67 VRB5      29.83R
DUPAGE AIRPORT CLEAR     64  56  75 W7        29.86R
WHEELING       CLEAR     67  55  65 NW7       29.86R
MORRIS*        CLEAR     64  56  76 W6        29.88R
ROMEOVILLE*    CLEAR     65  54  67 W9        29.88R
NORTHERLY ISL    N/A     70  51  51 W8          N/A
$$

LMZ740>746-240600-
SOUTHERN LAKE MICHIGAN

STATION/POSITION SKY/WX   TEMP    WIND        PRES    VSBY  WAVE
                          AIR SEA DIR/SP/G                  HT/PER
                          (F)     (DEG/KT/KT) (MB)    (MI)  (FT/S)
SOUTHERN BUOY              66 63  330/ 16/ 17 1008.4          1/ 3
WILMETTE HARBOR            67 65  290/ 10/ 12   N/A           1/ 3
HARRISON CRIB              70     300/ 14/ 15   N/A
BURNHAM HARBOR             69                   N/A
CALUMET HARBOR             71     300/  9/ 14 1010.2R
BURNS HARBOR               69     310/ 11/ 13 1010.8R
MICHIGAN CITY              69     290/ 18/ 20   N/A
MICHIGAN CITY 6N           69 68  300/ 14/ 17   N/A           2/ 3
ST. JOSEPH                 68 68  340/ 12/ 16 1009.7R         2/ 2
$$

ILZ025>027-034>036-040-047-049-050-058-095>099-240600-
WEST-CENTRAL ILLINOIS

CITY           SKY/WX    TMP DP  RH WIND       PRES   REMARKS
QUINCY         CLEAR     64  56  75 W7        29.99R
GALESBURG*     CLEAR     62  55  80 W8        29.97R
MACOMB*        CLEAR     61  56  85 NW6       29.99R
JACKSONVILLE*  CLEAR     61  55  82 W8        29.96S
PITTSFIELD*    CLEAR     67  56  68 W3        30.00R
$$

ILZ028>032-037-038-041>044-048-051>054-059>061-240600-
CENTRAL ILLINOIS

CITY           SKY/WX    TMP DP  RH WIND       PRES   REMARKS
PONTIAC        CLEAR     64  60  87 W8        29.92R
DECATUR        CLEAR     68  54  60 NW9       29.94R
PEORIA         CLEAR     65  55  70 W5        29.94R
LACON*         CLEAR     65  56  72 W7        29.92R
LINCOLN*       CLEAR     66  56  70 CALM      29.94R
SPRINGFIELD    CLEAR     66  57  72 W6        29.95R
TAYLORVILLE    CLEAR     66  55  66 NW7       29.96R
$$

ILZ033-039-045-046-055>057-062-063-240600-
EAST-CENTRAL ILLINOIS

CITY           SKY/WX    TMP DP  RH WIND       PRES   REMARKS
CHAMPAIGN      CLOUDY    64  55  72 W7        29.92R
RANTOUL*       CLEAR     66  58  76 NW7       29.91R
MATTOON        PTCLDY    66  58  75 NW9       29.92R
PARIS*         MOCLDY    65  61  86 NW5       29.92R
$$

ILZ079-100>102-240600-
SOUTHWEST ILLINOIS

CITY           SKY/WX    TMP DP  RH WIND       PRES   REMARKS
ALTON          CLEAR     66  58  73 W3        29.97R
BELLEVILLE     CLOUDY    72  55  55 NW12      29.97R
CAHOKIA*       CLOUDY    75  52  44 N13       29.97R
SPARTA*        PTCLDY    69  59  69 NW5       29.97R
$$

ILZ064>066-069>071-074>076-080>082-084>086-088>090-092>094-240600-
SOUTH-CENTRAL ILLINOIS

CITY           SKY/WX    TMP DP  RH WIND       PRES   REMARKS
CARBONDALE     CLOUDY    67  65  93 W3        29.93F
CAIRO*         CLOUDY    70  64  81 NW5       29.92S
EFFINGHAM*     CLOUDY    69  60  71 W7        29.95S
MARION         CLOUDY    70  64  83 CALM      29.94F
MT. VERNON     CLOUDY    64  63  96 CALM      29.94R
CENTRALIA*     CLOUDY    70  62  74 NW7       29.94R
SALEM*         CLOUDY    70  60  70 N6        29.95R
METROPOLIS*    PTCLDY    69  67  95 CALM      29.93S
$$

ILZ067-068-072-073-078-083-087-091-240600-
SOUTHEAST ILLINOIS

CITY           SKY/WX    TMP DP  RH WIND       PRES   REMARKS
LAWRENCEVILLE  PTCLDY    68  64  87 W3        29.90S
FLORA*         PTCLDY    71  61  69 NW7       29.94R
FAIRFIELD*     CLOUDY    68  64  86 CALM      29.91S
HARRISBURG*    CLOUDY    69  65  86 CALM      29.93S
ROBINSON*      CLOUDY    65  63  92 NW8       29.92R
CARMI*         CLOUDY    68  65  92 W3        29.91F
$$

ABBREVIATIONS USED IN REMARKS
   TC - TEMPERATURE IN CELSIUS
  WCI - WIND CHILL INDEX
   HX - HEAT INDEX
  VSB - VISIBILITY
$$





USA.gov is the U.S. government's official web portal to all federal, state and local government web resources and services.